Wind_Speed
49 49 49 49 49 49 48 47 46 45 45 44 43 42 41 40 39 38 37 37 36 35 35 35 34 33 33 32 31 30 30 30 28 28 26 24 24 24 24 25 25 22 20 20 20 21 22 23 23 22 21 21 21 19 18 18 19 17 17 17 17 17 16 16 15 13 12 11 11 11 10 10 12 14 13 12 14 15 13 14 16 16 16 16 16
49 49 49 50 50 49 49 48 47 47 46 45 44 43 42 41 40 38 38 37 37 36 35 35 35 34 34 34 33 31 32 32 31 30 29 26 25 25 25 27 27 24 23 22 22 22 23 24 24 24 24 23 22 21 18 18 19 18 18 19 18 18 18 18 17 15 14 13 13 13 12 12 12 14 15 13 13 15 14 14 16 17 16 16 15
48 49 49 50 50 50 50 49 49 48 47 47 45 44 43 42 41 40 39 37 37 37 36 36 35 34 34 34 34 33 33 33 33 32 31 29 27 26 26 27 28 28 26 26 24 24 24 25 25 25 25 25 24 22 19 18 19 18 19 19 19 18 18 19 19 18 16 14 14 14 14 13 14 14 15 14 13 15 15 15 15 16 17 16 14
46 48 49 49 49 50 50 50 50 49 49 48 46 45 43 41 41 42 40 38 36 36 37 37 35 35 34 34 34 35 34 34 34 33 32 32 29 28 28 28 29 29 29 28 27 26 26 26 26 25 26 27 26 25 23 21 20 20 20 20 20 19 19 19 20 19 17 16 15 15 14 14 14 14 14 15 14 15 16 16 15 16 17 16 14
42 46 49 48 49 50 50 51 51 51 50 49 47 46 44 40 40 41 42 40 36 34 36 38 37 36 36 34 34 36 36 36 36 34 33 33 31 30 29 30 30 30 30 30 29 29 28 28 28 27 28 28 28 27 26 25 24 23 22 21 22 21 20 20 20 20 19 18 16 15 15 15 15 15 15 15 14 15 16 17 17 16 16 16 15
40 43 46 47 48 49 50 51 51 51 50 49 47 45 43 40 37 38 42 42 38 34 34 37 39 38 37 36 35 36 38 37 37 37 35 34 34 32 31 31 31 32 32 31 31 31 30 30 29 29 30 30 29 29 28 27 26 25 24 23 23 22 22 21 21 21 21 20 18 17 16 16 17 17 17 17 17 16 16 17 17 17 17 18 16
39 41 42 44 47 48 48 49 49 49 49 48 46 43 41 39 37 36 38 40 40 37 34 35 39 39 38 38 37 37 38 39 39 39 38 37 36 35 33 33 33 34 34 33 32 32 33 32 32 32 32 32 31 30 29 28 28 27 26 25 24 23 22 21 21 21 20 20 19 18 18 17 17 17 17 17 18 18 17 17 17 17 17 17 17
39 39 40 42 45 47 47 47 46 46 46 46 45 42 40 39 38 36 35 37 40 39 35 34 37 40 40 39 39 39 39 41 41 41 41 40 39 38 36 35 35 35 36 35 34 34 34 34 34 34 34 34 33 32 31 29 28 28 28 27 26 25 24 22 21 21 21 20 19 19 18 18 18 18 17 17 19 19 18 18 18 17 16 17 18
38 38 39 43 45 46 46 45 44 44 43 44 44 42 41 40 39 38 37 36 37 38 37 35 36 40 42 41 40 41 41 43 44 43 43 42 41 40 39 38 37 37 37 37 36 36 35 35 35 35 36 35 35 34 32 30 30 29 29 29 28 27 26 24 22 22 21 20 20 19 18 19 19 19 19 20 21 21 18 17 18 18 16 16 18
37 37 39 43 45 45 44 44 43 42 43 43 43 42 42 41 40 39 39 38 38 38 38 37 36 38 42 42 42 42 43 45 46 46 45 44 43 42 42 41 40 39 38 38 38 38 37 35 35 35 36 36 36 35 33 31 30 29 29 29 29 28 28 27 25 23 22 21 20 19 19 19 19 20 20 20 21 20 18 17 17 17 16 16 17
36 38 39 40 43 45 45 45 44 43 43 43 43 42 42 42 41 41 40 40 39 39 39 38 37 36 39 43 43 43 44 45 46 47 46 45 45 44 43 43 43 42 41 40 40 39 39 37 35 35 36 37 37 37 35 33 31 30 29 29 29 29 29 28 28 26 24 22 20 19 19 20 19 19 20 19 19 19 18 18 17 17 17 17 17
36 39 39 39 41 44 46 46 46 45 44 44 44 43 42 43 43 42 42 42 41 41 41 41 41 38 38 42 44 44 45 46 46 46 46 46 45 44 44 44 44 44 44 43 43 42 41 40 38 36 37 39 39 38 37 35 33 31 30 29 30 30 29 29 29 28 26 24 21 19 20 20 20 20 20 20 19 19 19 19 19 18 18 18 18
35 38 40 40 42 44 45 46 47 46 46 46 45 44 44 44 45 45 45 44 44 44 44 45 44 42 41 42 44 45 45 46 46 45 45 45 45 45 45 45 45 46 46 46 45 45 44 43 41 39 39 40 40 39 38 37 35 33 31 30 31 32 31 31 30 29 27 24 22 21 21 21 21 21 20 20 20 20 20 20 20 19 20 20 20
34 37 40 40 42 44 45 45 46 46 46 46 45 45 45 45 46 47 47 46 46 47 47 47 46 46 45 44 44 46 46 46 47 46 45 45 44 44 45 46 46 47 47 48 47 47 47 46 45 44 42 42 42 41 40 38 37 35 34 33 34 34 33 33 33 32 30 27 25 23 22 22 21 21 22 21 21 22 21 20 18 18 19 20 19
34 37 40 41 43 45 46 45 45 45 45 45 45 45 44 44 45 45 45 46 47 47 48 48 48 47 48 47 46 47 47 46 47 48 46 45 44 44 44 46 47 48 48 49 49 48 49 48 48 47 46 45 45 44 41 40 38 37 36 36 36 36 36 36 36 35 33 32 31 29 26 24 22 22 22 21 22 22 20 18 18 18 18 19 20
36 37 40 43 45 46 46 45 44 44 44 44 45 44 44 44 44 44 43 43 44 45 46 48 47 47 48 48 48 49 49 47 48 49 48 46 45 45 45 46 47 48 49 49 49 49 50 50 50 49 47 47 48 47 43 40 39 38 37 37 37 37 38 38 38 36 34 33 33 33 31 30 28 26 23 21 21 20 17 17 18 20 20 20 20
39 40 41 44 45 45 45 44 43 43 44 44 44 43 43 43 43 43 43 42 42 44 44 44 45 46 47 48 49 50 50 48 48 49 49 48 47 46 47 48 48 49 50 49 49 50 51 51 50 49 49 49 49 49 45 41 40 40 38 39 39 38 38 39 39 37 34 32 33 33 32 32 32 30 27 26 24 20 17 18 17 17 18 18 18
40 42 42 43 43 43 43 43 42 43 43 43 42 42 42 42 42 42 42 42 41 40 39 38 40 43 45 47 47 48 48 48 48 48 48 48 47 47 47 48 49 51 51 50 51 51 51 51 50 49 50 50 51 50 47 43 41 41 41 40 39 40 40 40 40 39 35 33 33 32 32 32 32 31 30 30 29 25 23 22 17 14 16 16 15
39 41 41 41 41 41 41 41 41 42 42 41 41 41 41 41 40 40 41 41 40 37 35 34 35 37 40 42 42 44 44 44 44 46 47 47 47 47 47 47 49 51 51 52 52 53 52 51 51 52 51 49 50 51 48 45 42 43 44 42 41 42 39 36 38 40 36 34 33 33 33 32 31 32 32 31 31 29 29 27 20 16 16 15 13
34 35 37 37 38 39 39 39 39 40 40 40 39 40 39 38 38 38 38 37 37 35 34 33 33 32 33 34 35 38 41 41 42 44 45 45 46 46 47 48 50 51 51 52 52 54 54 47 46 53 53 49 50 51 49 47 43 42 45 45 45 43 35 29 33 36 33 31 30 29 31 33 33 33 32 32 32 30 30 28 23 19 18 16 14
29 31 34 34 34 35 36 37 37 37 36 36 36 37 38 37 36 36 35 33 32 33 33 32 31 30 30 30 31 33 35 37 39 41 42 43 44 45 46 48 49 49 51 52 51 54 54 44 41 51 56 52 51 51 50 49 44 42 45 47 47 44 35 30 32 33 30 29 27 27 30 31 30 28 27 29 31 31 30 29 25 22 19 15 13
27 28 30 31 31 32 34 35 35 34 33 34 35 35 35 34 32 32 31 29 29 30 30 29 28 28 28 29 30 31 31 32 35 38 40 41 42 42 43 44 45 46 49 52 52 54 55 49 45 50 53 52 52 51 50 50 46 42 44 46 45 43 38 35 34 32 32 31 28 28 29 25 21 20 20 21 23 24 24 24 23 21 16 12 15
25 27 28 30 30 30 31 32 32 32 32 33 33 33 33 31 29 29 29 28 28 27 27 27 26 26 28 28 28 29 30 30 33 35 37 39 39 39 40 40 41 42 45 48 51 51 51 50 48 49 48 49 50 50 50 50 48 45 44 44 45 44 39 37 35 34 34 32 28 27 27 23 19 19 20 19 17 15 15 17 19 20 17 17 23
22 24 26 28 28 27 27 28 29 29 30 30 30 30 31 30 29 29 29 29 27 26 26 26 25 25 26 26 26 28 29 29 30 32 35 36 36 37 38 37 38 39 40 44 46 42 36 35 40 45 47 47 46 46 47 49 48 46 45 45 45 44 41 39 38 37 36 34 30 27 25 23 22 21 20 19 17 14 14 14 16 19 20 21 26
18 20 21 22 24 24 24 24 26 26 26 26 26 27 27 28 28 28 28 26 25 24 24 25 23 23 25 25 24 25 25 26 27 30 33 35 35 36 37 37 37 38 39 41 42 38 32 30 33 37 42 44 43 42 44 46 45 44 46 47 45 44 43 42 42 41 39 37 34 30 26 23 22 20 19 17 18 18 17 15 17 22 23 22 23
17 18 17 17 19 20 21 21 22 23 23 22 22 22 23 23 23 24 24 23 23 23 23 23 23 22 23 23 23 23 23 24 25 28 32 34 35 35 35 35 35 36 37 38 39 38 37 36 36 37 38 40 39 38 40 41 42 42 45 48 47 46 46 46 45 44 42 39 35 32 27 22 19 19 18 18 21 23 21 21 25 28 25 23 23
16 16 15 14 16 17 18 19 19 19 20 19 18 18 18 19 20 21 21 20 21 22 23 23 22 22 22 22 22 21 22 22 22 24 28 31 32 33 34 33 33 34 35 36 36 36 37 38 40 40 40 40 41 40 39 40 42 44 47 50 50 49 49 50 49 47 45 41 35 32 29 23 21 23 24 23 24 25 25 28 31 28 23 21 20
12 13 13 13 14 15 16 17 16 16 16 16 15 15 16 17 18 19 19 18 19 20 21 21 21 21 20 20 21 21 21 21 20 22 25 27 30 31 32 32 33 34 35 34 33 32 34 38 41 42 43 43 43 44 44 44 46 49 50 53 54 52 51 52 50 47 45 41 36 32 29 26 26 28 29 29 28 27 27 29 30 26 22 19 16
9 10 11 10 10 12 13 14 14 13 13 14 16 17 17 16 16 17 18 19 19 20 20 19 18 18 17 17 19 20 20 20 21 22 23 25 27 29 29 30 32 34 34 35 34 34 36 42 46 46 47 47 46 47 49 50 51 52 53 55 56 55 54 54 52 50 48 44 39 35 32 30 31 31 31 33 33 32 30 29 27 24 20 16 15
10 10 11 11 11 10 10 11 13 12 11 13 16 19 18 16 16 18 19 20 20 21 20 19 18 19 18 18 19 20 21 23 25 25 25 25 27 29 31 33 34 36 37 37 37 39 42 47 50 49 49 52 53 54 56 56 55 55 55 57 58 57 57 57 55 54 52 47 42 39 35 33 34 33 32 35 37 36 34 31 27 24 21 18 17
15 15 14 14 13 12 9 10 11 12 11 11 13 17 19 18 17 18 17 17 18 19 20 20 21 21 21 21 22 23 24 26 28 30 31 32 33 35 37 38 39 42 44 43 41 42 44 48 52 54 54 57 60 61 63 64 62 60 59 60 61 59 58 57 55 54 52 47 43 40 37 35 36 35 35 36 36 35 33 30 28 26 24 21 19
13 15 16 16 16 16 14 13 13 12 11 10 9 10 14 17 17 18 18 18 18 18 19 20 21 22 23 24 25 24 25 26 27 28 30 32 34 36 38 40 41 43 45 47 47 48 48 50 54 57 59 61 64 65 67 68 66 63 61 62 63 62 59 57 55 52 49 47 45 43 39 37 37 36 35 35 33 31 30 29 27 26 23 19 17
8 9 12 15 17 16 15 16 17 15 12 10 8 8 8 9 11 14 16 16 18 19 18 18 19 19 19 19 17 16 16 17 18 19 20 22 24 26 28 31 34 37 42 47 52 55 55 54 57 61 63 65 65 66 68 70 68 65 64 65 66 65 61 58 56 54 50 48 48 45 41 38 38 36 34 32 29 28 28 27 25 22 19 16 16
8 8 9 9 9 8 9 12 13 12 12 13 11 9 8 6 6 7 8 8 9 10 10 10 10 9 9 8 6 6 7 9 11 13 15 16 18 20 21 22 24 28 34 41 49 56 58 58 60 63 65 66 66 65 67 69 68 65 64 65 64 62 59 57 57 55 52 50 48 45 41 39 38 36 34 31 29 28 28 26 23 20 18 18 18
8 9 10 10 7 6 8 8 6 7 9 12 10 9 8 7 7 7 7 7 7 7 7 6 5 3 2 3 4 5 6 8 9 11 12 14 16 17 18 19 19 21 24 29 37 44 49 53 57 60 62 64 67 69 70 71 70 67 65 64 62 59 57 57 56 54 50 48 46 43 40 38 37 36 34 32 30 28 27 25 22 18 17 18 18
10 9 10 10 9 9 10 10 10 11 12 11 10 10 10 9 9 9 10 10 9 9 9 7 5 2 2 3 4 4 5 8 10 12 14 15 16 18 19 20 20 20 20 22 25 29 32 37 44 51 56 59 61 64 68 69 69 68 66 64 62 59 57 56 54 51 47 45 44 42 39 37 35 34 33 32 29 27 25 23 21 18 17 18 18
10 9 9 8 7 9 14 16 15 15 14 12 12 12 11 11 11 11 11 11 11 9 7 6 4 4 6 6 5 6 9 12 14 16 18 18 20 22 25 26 24 23 21 20 21 23 24 25 28 35 45 50 50 54 59 61 62 65 66 64 60 58 57 54 51 48 46 45 44 40 36 34 33 32 30 29 28 25 23 21 20 19 18 19 19
10 11 11 10 8 9 14 16 15 14 13 12 12 12 11 12 12 12 11 11 10 8 6 5 4 5 6 7 6 8 11 14 16 18 19 20 22 25 28 29 26 24 23 22 21 23 25 26 26 26 31 38 42 45 49 51 52 55 59 59 58 57 56 53 49 46 45 44 41 36 32 31 32 32 30 27 25 23 21 20 19 19 18 19 20
11 13 15 15 14 13 14 14 14 13 12 11 12 12 12 11 10 10 9 9 9 7 6 4 4 5 8 8 7 8 10 11 13 15 16 17 18 20 23 26 28 28 26 23 20 23 29 30 26 19 19 26 31 34 39 46 50 51 54 57 58 57 55 52 48 44 41 39 35 32 31 31 31 30 28 26 24 21 19 19 19 19 19 19 20
15 17 19 17 15 13 13 12 11 11 11 10 10 10 10 9 9 8 7 8 8 7 5 3 3 6 9 9 9 9 8 8 11 13 13 13 15 16 17 20 23 25 25 23 20 19 20 16 7 2 4 1 3 9 19 31 42 47 50 54 57 56 52 49 44 38 34 32 29 29 31 31 29 27 25 23 22 20 19 19 20 20 20 19 19
15 17 19 18 15 12 10 10 9 9 10 9 8 7 7 7 7 7 6 6 6 5 3 3 3 5 7 8 9 9 7 7 9 11 9 10 12 14 14 17 19 20 20 19 19 19 17 13 13 18 20 21 20 19 18 21 27 32 33 36 40 42 41 38 33 29 28 29 29 29 29 29 28 24 19 17 18 19 19 19 20 20 19 19 18
14 15 16 15 13 11 9 8 7 7 7 8 7 6 7 6 5 5 5 6 5 4 2 1 1 3 4 5 5 6 7 8 10 10 9 7 9 10 11 12 15 17 17 16 18 20 21 20 21 23 25 26 26 23 21 21 24 25 22 20 22 26 27 26 25 25 27 29 29 27 26 24 22 20 18 19 22 22 19 18 19 18 18 18 18
14 14 14 13 12 11 9 8 7 6 6 6 6 6 6 5 4 4 4 4 4 4 3 2 1 1 2 2 3 3 5 7 9 9 9 7 7 8 8 8 9 11 12 14 16 18 20 19 19 19 19 19 19 20 18 17 17 16 15 15 17 20 22 22 23 24 27 28 26 24 22 21 21 22 22 23 24 21 18 17 18 18 17 17 17
14 14 14 13 12 11 10 9 8 7 7 7 6 6 5 5 4 4 4 3 3 2 2 1 1 2 3 4 4 4 3 4 5 6 8 7 6 6 6 6 7 8 8 10 11 13 15 16 16 16 16 15 15 16 18 18 16 14 15 16 18 20 21 22 23 25 27 28 26 25 23 23 24 25 24 22 21 19 17 17 17 17 16 16 16
14 14 13 12 11 11 10 10 9 8 8 7 6 5 5 5 5 5 3 2 2 2 1 1 1 2 3 3 4 4 3 3 3 5 6 5 4 5 5 5 6 6 6 6 8 9 11 12 12 13 14 13 12 12 14 16 16 15 16 18 19 20 22 23 25 27 27 27 27 26 24 23 23 22 20 19 18 17 16 16 17 17 16 16 15
14 14 14 13 11 11 11 12 11 9 8 7 6 6 5 5 5 5 4 3 2 2 1 1 1 2 3 4 4 4 4 4 3 4 5 5 4 4 4 4 4 4 4 2 2 5 7 7 7 7 8 9 9 8 9 12 15 16 18 19 20 21 23 24 26 26 25 24 24 23 21 19 19 18 17 16 16 16 15 14 15 16 16 16 16
13 12 13 14 14 13 12 12 12 10 9 8 7 7 6 5 5 4 3 3 3 3 3 3 3 3 4 4 4 4 5 4 3 4 5 6 5 3 0 0 1 2 2 2 2 3 5 5 4 4 4 6 7 7 8 10 13 15 17 18 19 20 21 22 23 23 22 20 18 17 17 16 15 15 15 15 14 14 15 14 14 14 15 16 16
15 14 13 14 14 13 12 10 9 9 9 8 6 5 5 6 6 5 5 5 5 5 4 4 4 5 5 5 5 5 5 5 5 5 5 4 4 3 2 2 2 2 3 3 3 3 3 3 2 2 2 5 7 9 11 12 13 14 16 17 18 19 20 21 21 19 18 17 15 13 13 14 13 13 14 15 14 13 13 14 14 14 14 15 16
20 19 17 15 13 12 11 8 7 7 7 6 3 3 3 4 5 6 6 6 7 7 8 7 6 6 6 6 6 6 6 6 6 6 5 4 3 1 1 2 3 3 3 3 3 3 3 4 4 4 4 7 9 11 12 13 14 15 16 17 18 18 18 17 17 16 15 15 14 13 12 12 11 11 11 13 14 13 12 12 13 14 14 14 14
23 22 20 18 16 14 12 10 8 8 7 5 3 1 2 3 4 5 4 4 4 5 6 6 6 6 8 9 9 8 7 7 7 7 6 7 7 5 3 4 5 4 2 2 3 3 3 4 5 6 7 9 11 13 13 13 14 15 17 17 17 16 15 15 14 13 13 13 13 11 10 10 10 10 10 11 12 13 13 12 13 13 14 14 14
24 24 23 23 22 20 17 15 13 11 10 10 9 7 4 4 4 3 2 2 4 4 4 4 5 6 8 9 9 9 8 8 9 8 7 8 8 7 5 4 4 3 1 1 1 1 2 3 5 7 9 11 12 13 13 13 15 16 17 16 15 14 13 12 11 11 11 11 10 10 9 9 9 9 10 10 11 12 13 14 13 13 13 13 13
Wind_Direction
222 223 223 224 226 228 229 229 229 230 231 232 232 233 235 235 236 237 237 238 238 238 238 236 236 237 238 237 235 234 234 234 232 234 233 227 225 227 228 233 235 224 216 220 219 220 227 225 220 224 226 223 225 225 220 226 234 229 224 223 220 223 223 217 219 224 223 222 225 225 227 239 252 255 248 237 246 258 249 237 244 249 251 257 260
221 223 223 224 225 227 229 229 229 230 231 233 233 233 235 236 236 236 236 236 237 237 238 238 236 235 236 237 236 233 233 235 234 234 235 232 228 228 227 230 235 231 224 224 223 221 229 233 228 227 229 228 228 228 222 224 233 233 229 229 225 224 227 226 223 223 226 227 225 229 232 227 233 250 259 248 238 251 255 242 241 249 256 256 253
220 223 223 224 225 226 228 229 230 231 231 232 233 234 235 236 236 236 234 234 235 236 236 236 236 235 234 234 235 234 233 235 236 235 235 235 231 230 230 232 236 237 235 233 230 225 227 233 235 232 232 232 232 229 223 219 225 230 231 232 229 224 224 229 230 224 224 229 227 229 235 236 233 238 252 253 236 237 253 255 244 242 250 252 243
214 221 223 224 225 226 227 229 230 231 232 232 233 234 234 235 236 237 235 231 231 234 235 235 236 237 235 233 234 235 234 235 236 235 235 236 234 231 232 235 238 240 241 241 238 233 231 234 236 236 235 235 234 232 227 222 222 225 229 231 232 229 222 226 234 231 225 225 228 230 230 234 242 241 240 246 240 232 241 253 252 246 250 251 244
207 218 224 223 224 226 227 228 229 230 231 232 232 233 232 229 232 236 236 231 226 228 233 235 236 238 237 234 233 235 235 236 236 235 234 236 235 234 233 235 238 242 244 244 243 241 240 239 238 238 237 237 237 236 233 230 228 227 228 230 234 235 229 224 229 234 232 227 225 228 227 226 235 239 234 234 238 236 235 241 246 247 249 248 243
202 212 220 221 223 226 226 227 228 228 230 230 230 229 227 223 223 229 235 234 227 223 228 235 237 237 238 237 235 235 236 236 237 237 235 236 237 235 234 235 238 241 244 245 245 244 244 243 241 240 239 239 239 240 238 236 235 233 231 231 233 236 235 230 227 229 233 234 229 227 230 227 227 232 233 230 230 234 235 238 242 243 243 244 242
200 205 213 218 221 225 226 228 228 228 229 229 226 223 221 219 217 221 229 234 231 224 222 229 237 239 238 238 236 236 236 236 237 237 237 237 238 237 235 235 237 239 242 244 245 246 246 245 243 241 241 240 240 241 241 239 238 238 236 236 235 235 234 233 229 226 227 231 231 229 229 230 229 229 232 232 230 231 231 233 242 246 245 248 249
200 201 206 213 220 224 226 228 229 229 229 229 226 221 218 218 217 217 222 229 232 229 222 223 233 239 239 238 237 237 237 236 236 236 237 237 237 238 237 236 236 238 241 243 245 245 246 246 246 244 243 243 241 241 241 241 240 240 240 240 239 238 235 230 227 225 224 225 228 230 230 230 230 229 231 231 230 234 235 233 237 244 246 252 259
202 200 203 211 219 222 224 225 228 229 228 228 228 223 219 219 218 217 218 223 228 230 225 220 226 236 240 239 237 237 237 237 236 236 236 236 236 238 238 237 237 238 241 243 244 245 244 245 246 246 245 245 244 243 243 243 243 241 242 242 241 241 239 233 228 225 224 224 226 228 229 229 229 228 227 228 231 239 244 241 240 244 246 248 257
203 202 205 212 219 221 222 224 226 228 228 228 229 226 222 220 219 219 219 221 225 228 227 221 221 230 239 240 238 237 237 238 238 237 236 236 237 238 239 239 239 238 240 242 243 244 244 243 243 245 247 247 247 246 245 245 246 245 245 246 244 243 241 238 233 226 223 224 225 226 229 231 231 230 230 232 235 239 241 239 240 243 244 243 247
205 205 207 212 217 220 224 226 227 229 229 228 229 228 225 222 221 221 221 221 223 226 228 225 220 222 234 240 241 239 238 239 240 239 238 238 238 239 239 241 241 241 241 242 243 244 245 244 242 242 246 248 248 248 246 245 246 245 246 247 247 246 244 241 237 231 225 223 223 225 231 235 236 235 238 239 238 239 240 240 241 239 239 240 240
207 208 208 210 214 220 225 227 229 230 231 231 230 230 228 224 221 222 222 221 223 225 227 229 226 222 226 236 241 241 240 240 241 241 241 239 239 240 241 241 242 243 243 243 244 244 245 245 242 240 243 247 248 249 249 247 246 245 244 244 246 246 244 242 239 234 229 224 224 228 233 238 240 241 241 241 240 241 242 243 244 241 239 241 243
208 209 209 210 214 220 224 227 230 232 232 233 232 231 231 229 225 225 226 225 227 229 230 232 232 228 226 230 237 241 243 243 242 242 242 242 240 239 240 242 242 244 244 244 244 245 245 245 243 240 242 246 249 250 251 250 248 246 243 241 242 244 243 242 239 235 232 228 227 231 234 236 239 240 240 240 239 239 238 239 241 240 241 247 249
208 210 211 211 214 220 224 227 230 232 232 232 232 232 234 233 231 229 228 228 230 231 233 234 235 234 232 231 234 238 241 243 244 243 242 242 242 240 240 241 243 244 245 246 245 246 246 246 245 244 243 245 247 249 250 251 249 246 243 240 239 240 240 240 239 235 233 229 227 231 233 235 239 240 239 237 234 234 236 238 239 240 246 251 252
206 210 214 213 214 219 225 228 229 230 231 232 232 234 235 236 235 231 228 229 232 233 234 236 237 238 238 236 235 238 240 241 243 245 244 242 242 242 241 240 242 244 245 246 247 247 248 248 247 247 246 246 248 249 248 250 250 247 244 241 239 238 239 240 240 237 234 231 231 231 231 232 236 237 236 234 232 234 237 240 241 241 245 250 254
206 209 214 216 217 221 224 227 228 229 231 232 233 235 236 237 236 232 228 228 232 234 236 238 238 239 241 241 241 242 242 242 243 246 246 245 243 242 242 241 241 242 243 245 246 247 248 248 248 248 246 246 249 251 249 249 250 248 245 242 240 238 239 241 242 240 238 236 236 235 235 235 235 233 231 230 233 236 237 240 243 242 244 249 256
209 210 214 218 219 221 224 227 228 229 230 231 233 235 235 236 235 233 230 228 230 233 236 237 238 240 242 244 246 246 246 245 245 246 247 247 245 243 243 243 242 243 243 243 244 246 248 248 247 248 247 246 249 251 249 246 247 247 245 242 240 238 238 241 242 241 239 238 238 237 238 240 240 237 233 231 234 235 232 233 237 240 245 251 255
211 211 214 217 219 221 224 227 228 229 231 232 234 235 234 235 235 235 235 232 230 231 232 233 236 241 244 246 247 248 248 246 246 248 248 248 247 245 244 244 244 245 244 243 243 245 247 247 245 245 246 247 249 250 248 245 243 244 243 241 239 239 237 237 239 239 235 233 235 236 237 239 241 239 236 235 237 237 236 237 236 233 241 249 250
212 212 214 217 220 222 225 227 229 231 233 234 234 233 233 233 234 235 237 235 231 228 227 228 232 237 243 245 245 248 249 247 248 249 249 249 248 246 244 244 244 245 245 245 245 245 246 247 247 246 244 245 247 248 247 244 241 239 239 237 236 238 236 233 236 239 234 230 231 234 236 238 238 236 236 236 238 239 241 242 238 231 237 242 236
210 211 212 216 221 224 226 228 231 233 234 235 234 234 234 234 234 235 236 236 233 231 228 228 230 233 238 240 241 245 248 248 248 250 251 250 249 247 245 244 244 245 246 246 247 247 246 245 246 248 247 244 245 246 245 244 241 237 235 234 235 235 229 221 231 238 235 232 233 235 236 236 235 234 235 236 237 240 242 241 238 233 230 228 224
208 209 211 213 218 223 226 229 233 236 238 238 237 236 236 235 233 235 234 231 230 232 230 228 229 232 234 235 236 240 244 245 247 251 252 252 252 249 246 245 246 246 246 247 248 249 248 244 243 249 249 245 244 245 244 244 242 237 234 234 236 234 224 217 226 234 232 230 231 231 233 233 230 227 228 233 238 239 239 239 237 229 218 211 218
207 208 209 210 213 220 225 229 235 239 240 240 238 236 235 232 228 228 228 224 224 229 229 227 228 231 234 236 237 238 240 242 245 250 254 255 254 251 249 249 248 247 247 248 248 249 249 247 246 250 250 248 246 246 246 245 242 238 235 234 234 233 225 218 223 228 227 224 222 223 226 224 216 211 215 227 235 235 233 232 225 212 201 207 227
205 206 210 214 215 218 223 227 233 236 235 236 236 235 233 229 222 220 223 221 221 223 224 225 227 231 234 236 238 241 242 243 245 250 253 255 255 255 253 252 251 249 249 250 251 251 251 250 249 250 251 250 249 247 246 244 241 238 235 232 232 232 224 216 219 224 223 219 215 215 217 213 205 202 204 211 219 219 214 213 208 198 194 216 229
201 203 210 218 217 213 214 221 228 230 230 232 234 234 233 230 227 225 226 224 221 221 223 226 229 234 237 239 240 242 244 246 247 251 254 256 256 257 257 256 254 253 253 254 254 252 249 247 246 248 249 250 250 249 247 245 244 241 235 229 228 228 221 214 216 219 218 216 215 212 209 206 203 204 204 204 208 211 201 195 198 198 200 216 225
196 199 205 213 213 207 206 212 219 223 224 227 231 233 230 228 226 225 225 222 220 222 226 228 229 234 238 241 242 243 245 247 249 253 257 258 259 259 259 259 258 256 255 256 256 252 246 242 243 246 249 250 249 247 245 243 243 241 234 228 226 224 219 213 212 213 214 215 215 212 208 206 205 207 206 195 195 206 202 186 194 206 207 213 220
197 202 203 206 205 201 200 202 210 219 223 223 224 227 225 221 221 221 220 219 222 225 229 231 231 234 239 243 245 246 247 248 250 254 257 259 260 261 262 262 262 260 259 261 262 259 254 249 245 244 247 247 245 244 244 243 243 240 233 228 224 220 215 212 210 210 210 211 213 211 208 206 200 200 200 188 189 204 205 195 202 210 208 211 220
198 199 196 198 198 196 196 196 201 213 219 213 210 215 217 214 214 216 217 218 222 225 228 231 233 235 239 243 245 246 248 249 250 254 258 260 261 262 263 264 264 262 261 261 263 264 262 257 251 246 245 245 244 243 243 240 238 235 231 227 223 217 213 211 211 210 208 209 210 210 207 202 193 195 200 196 197 207 208 205 210 211 205 209 219
190 190 185 187 190 190 193 194 193 199 205 202 199 206 210 210 210 212 214 217 220 224 229 232 235 238 241 244 246 246 248 250 249 250 255 261 264 265 267 268 267 265 264 263 265 266 264 259 254 248 245 245 244 240 236 232 230 229 227 222 219 214 210 208 208 207 207 205 204 203 202 196 193 197 200 199 201 206 208 211 217 215 206 208 213
171 176 173 177 185 187 189 192 191 191 193 192 194 199 201 202 205 208 213 216 216 220 225 227 229 234 236 239 243 246 248 249 248 247 250 257 264 268 270 271 270 270 270 270 269 268 262 255 250 247 245 244 242 238 233 230 228 228 224 218 214 210 206 204 203 202 202 201 199 198 196 192 194 199 200 198 201 205 209 216 220 214 204 206 214
149 155 161 170 176 177 182 189 190 190 189 192 200 204 202 200 202 206 213 218 218 221 226 228 230 235 237 239 244 249 253 254 254 255 257 259 264 268 270 273 273 273 275 274 270 267 261 254 249 248 245 241 238 236 233 230 228 227 222 216 211 207 204 203 202 200 199 199 198 197 194 193 197 200 199 199 202 207 212 218 217 208 200 202 210
155 158 164 166 161 159 170 184 184 185 188 194 203 208 207 207 211 216 221 225 224 226 229 232 238 242 246 249 254 257 261 263 263 265 267 268 269 270 270 271 271 272 275 275 269 265 261 254 250 249 246 241 238 236 233 231 229 225 219 213 208 205 203 202 201 198 196 195 194 194 194 196 200 201 200 202 205 207 209 210 209 206 205 205 207
160 165 169 170 165 164 168 168 165 173 187 191 188 193 202 211 217 223 229 233 234 236 237 237 242 248 252 258 262 266 269 272 273 274 276 275 275 275 272 271 271 270 270 269 265 263 260 254 251 250 246 242 242 239 235 232 228 222 214 208 204 202 201 200 197 195 194 191 190 191 192 194 197 199 201 204 205 201 199 200 203 206 209 207 208
141 149 162 173 178 178 175 171 167 169 178 185 173 161 174 198 212 220 229 236 240 244 246 247 249 254 257 262 269 273 276 278 281 284 287 287 287 287 284 281 278 274 269 264 261 261 259 254 251 250 246 243 242 239 235 232 228 221 213 207 203 200 198 196 195 195 194 192 191 190 189 190 193 196 199 202 200 194 194 199 201 203 206 208 211
134 129 133 148 164 168 165 171 175 172 173 180 179 171 164 166 184 206 217 220 221 224 230 235 239 243 247 252 264 276 285 292 295 296 299 301 302 302 299 294 289 282 274 267 263 261 259 254 251 250 247 243 240 236 232 228 223 218 213 207 201 197 194 192 191 191 191 190 189 188 187 188 191 192 195 197 195 192 196 204 207 204 207 212 216
116 115 114 115 120 128 135 146 156 159 162 165 166 169 170 161 150 150 152 152 154 153 151 161 172 180 208 247 272 292 308 320 323 323 325 327 326 324 320 314 309 302 293 282 274 268 264 258 254 252 249 244 239 235 231 225 220 215 210 203 198 194 190 187 186 186 186 187 187 187 186 185 188 192 193 193 193 193 197 205 211 210 209 212 217
102 106 109 113 119 127 131 134 137 139 139 138 137 141 147 145 134 127 128 131 130 131 136 136 122 82 16 339 327 335 359 9 5 1 0 357 354 352 351 348 343 334 320 304 292 285 279 270 261 256 254 251 244 236 230 224 217 210 204 199 195 190 184 181 182 184 185 185 186 185 182 180 185 191 191 189 191 194 196 201 209 213 214 215 217
106 112 118 117 120 135 147 150 149 142 134 128 130 129 125 123 121 119 122 124 122 126 133 121 79 33 12 6 2 8 19 21 19 15 12 10 12 16 16 12 6 357 347 332 318 310 302 291 277 263 256 255 253 244 234 225 214 203 197 194 190 185 179 178 180 182 182 182 182 182 180 178 181 183 183 185 191 195 197 202 209 215 219 218 216
123 130 130 117 102 116 137 141 137 131 125 122 122 120 118 123 126 126 131 134 126 114 104 90 70 45 28 17 9 16 21 21 21 21 17 16 22 30 32 30 26 19 10 357 340 327 315 304 300 287 267 261 263 256 240 222 205 192 186 183 180 177 176 176 176 177 177 177 179 179 177 176 177 177 177 183 190 194 200 209 214 216 218 217 215
111 121 120 113 106 106 114 118 115 114 114 114 113 110 109 114 118 121 127 130 121 107 93 81 68 54 42 27 13 20 27 22 16 17 19 20 25 32 35 36 36 33 27 16 357 337 321 309 303 298 279 269 267 254 228 206 193 185 180 175 172 171 171 171 169 169 171 172 174 176 175 173 175 178 181 185 190 196 205 213 215 214 217 219 217
93 99 101 102 104 105 104 101 100 99 99 100 105 109 109 108 109 114 122 127 128 131 135 129 99 68 53 39 25 26 33 23 10 8 14 23 29 33 37 38 39 38 34 28 20 5 347 330 313 141 121 141 234 203 185 178 175 172 168 164 161 160 162 162 162 162 165 167 171 176 175 172 173 178 184 188 192 199 210 215 213 214 218 221 219
94 93 94 95 95 92 86 82 82 85 90 93 95 102 110 111 106 107 115 121 124 131 151 154 125 85 61 44 29 22 21 12 4 4 10 23 31 37 44 47 47 46 41 34 31 35 40 56 90 101 93 86 87 89 91 107 124 131 133 138 146 149 150 150 152 156 162 167 171 174 175 176 178 182 187 193 197 203 211 214 213 215 217 217 216
89 86 84 85 86 84 80 80 81 81 86 90 93 100 108 108 106 108 112 114 112 103 90 99 117 89 72 55 31 12 1 354 356 3 11 23 31 35 42 49 49 52 56 56 53 58 68 76 81 82 83 84 87 89 88 94 102 103 103 118 138 144 143 145 151 159 164 168 174 178 179 182 186 188 194 202 205 205 207 208 209 212 214 213 214
83 83 80 79 80 80 81 83 83 80 81 85 96 108 111 106 105 107 100 94 95 92 77 52 9 2 12 3 349 346 342 338 344 355 3 11 21 28 34 36 32 40 62 78 78 78 83 86 82 78 77 79 86 96 106 112 113 113 121 138 151 153 151 151 154 161 167 171 176 181 184 187 191 195 201 206 207 204 203 204 206 209 211 211 212
80 80 80 79 76 74 75 79 80 76 75 80 87 94 98 101 107 106 96 83 78 77 71 58 16 345 342 342 347 356 345 327 330 346 355 360 8 16 21 16 4 10 47 83 92 88 86 87 87 85 83 83 91 105 118 126 133 141 151 159 161 160 158 156 158 166 175 179 180 182 185 190 196 201 205 207 204 201 202 206 207 207 209 211 212
76 75 75 75 73 67 64 66 69 64 61 66 73 71 68 72 78 81 83 87 79 65 48 23 7 359 358 358 353 350 350 348 346 349 352 356 358 357 1 3 359 3 31 79 103 103 93 87 85 86 89 94 100 108 117 128 141 152 160 165 165 164 163 167 172 176 180 184 186 188 191 196 201 203 202 200 200 200 203 208 209 209 210 212 212
74 73 70 66 67 64 55 51 52 53 52 54 58 56 54 57 60 60 61 64 60 48 19 9 14 17 21 17 359 344 352 6 360 338 334 339 341 332 323 330 350 4 12 27 105 124 120 113 106 103 108 116 123 131 140 149 157 164 167 170 172 171 170 173 176 177 180 185 191 195 196 198 203 203 197 195 199 202 203 208 212 212 212 213 214
75 81 75 65 62 60 54 51 53 53 50 49 52 54 52 51 49 49 54 60 56 34 9 11 22 24 20 18 12 4 3 2 353 345 348 353 358 2 330 279 7 36 43 38 57 96 110 121 130 137 140 140 143 152 161 165 169 173 174 173 173 173 173 174 175 178 183 189 196 199 196 192 194 196 193 193 198 203 205 209 213 213 214 215 215
65 71 73 68 63 58 55 59 67 64 57 59 71 76 68 62 55 45 36 33 34 31 24 23 25 26 27 27 24 23 23 19 17 22 25 21 25 50 90 107 105 92 79 79 88 91 99 123 159 187 176 165 162 162 165 169 172 173 173 174 176 179 181 181 182 186 192 193 191 188 186 183 184 190 195 197 199 204 208 210 213 215 215 215 214
66 68 68 67 64 58 55 61 70 64 55 60 90 130 128 112 104 93 73 53 42 39 36 31 26 34 46 46 37 32 34 33 34 39 43 32 17 16 105 105 96 90 84 94 113 122 137 159 176 181 178 174 171 170 172 175 176 176 177 181 186 189 190 191 194 198 199 193 182 172 172 179 186 192 199 203 205 207 210 213 214 215 214 213 214
70 74 75 71 66 61 59 62 69 68 61 56 62 123 173 163 146 138 131 117 103 89 71 55 53 74 84 76 62 50 44 40 40 43 40 29 30 43 64 63 58 61 69 85 104 127 153 166 171 178 185 187 185 183 181 180 182 186 189 192 194 195 197 200 203 202 193 184 176 170 171 180 189 194 201 208 210 211 214 217 216 216 216 217 218
70 75 77 77 75 73 69 67 69 73 74 72 69 69 81 101 109 116 125 122 122 126 120 103 100 107 108 100 89 80 74 67 57 51 46 38 36 45 57 51 39 38 45 56 84 153 179 178 176 182 190 193 191 186 182 182 188 195 199 199 200 201 203 204 204 202 195 188 179 173 176 185 193 200 207 213 215 216 217 218 216 217 218 220 221
Height
1481 1484 1488 1491 1493 1496 1499 1502 1505 1508 1511 1513 1516 1518 1520 1522 1524 1526 1528 1530 1532 1533 1535 1537 1539 1540 1542 1543 1545 1546 1547 1549 1550 1551 1553 1554 1556 1557 1558 1558 1559 1560 1561 1561 1562 1563 1564 1565 1566 1567 1568 1568 1569 1570 1571 1571 1571 1572 1573 1573 1574 1575 1575 1576 1577 1577 1577 1578 1578 1579 1579 1579 1578 1578 1578 1579 1578 1578 1579 1579 1579 1579 1578 1578 1578
1476 1479 1482 1486 1488 1491 1495 1498 1501 1504 1507 1509 1511 1514 1516 1518 1520 1522 1524 1526 1528 1530 1531 1533 1535 1537 1538 1540 1542 1543 1544 1546 1547 1548 1549 1551 1553 1554 1555 1556 1556 1557 1558 1559 1559 1560 1561 1562 1563 1565 1565 1566 1566 1567 1568 1569 1569 1569 1570 1571 1572 1572 1573 1573 1574 1575 1575 1576 1576 1576 1577 1578 1578 1577 1576 1576 1576 1576 1576 1577 1577 1577 1576 1576 1576
1471 1474 1477 1481 1484 1487 1491 1493 1496 1499 1502 1505 1507 1510 1512 1514 1516 1518 1520 1522 1524 1526 1527 1529 1531 1533 1535 1537 1538 1540 1541 1542 1544 1546 1546 1548 1549 1551 1552 1553 1554 1554 1555 1556 1557 1558 1558 1559 1560 1562 1563 1563 1564 1565 1566 1566 1567 1567 1568 1568 1569 1570 1570 1571 1571 1572 1573 1573 1574 1574 1574 1575 1575 1575 1574 1574 1574 1574 1574 1574 1575 1575 1574 1574 1575
1468 1469 1472 1476 1479 1483 1486 1489 1492 1495 1498 1500 1503 1506 1508 1510 1512 1514 1516 1519 1520 1522 1524 1526 1527 1529 1531 1533 1535 1537 1538 1539 1541 1543 1544 1545 1546 1548 1549 1550 1551 1551 1552 1553 1554 1555 1556 1556 1557 1559 1560 1560 1561 1562 1563 1564 1564 1565 1565 1566 1566 1567 1568 1568 1568 1569 1570 1571 1572 1572 1572 1572 1572 1573 1572 1572 1572 1572 1571 1571 1572 1572 1572 1572 1572
1464 1465 1468 1472 1475 1477 1480 1483 1486 1489 1492 1495 1498 1501 1504 1506 1507 1509 1511 1515 1517 1518 1520 1522 1524 1525 1527 1530 1532 1533 1535 1536 1538 1539 1541 1542 1543 1545 1546 1547 1548 1549 1550 1551 1552 1552 1553 1553 1554 1555 1556 1557 1557 1558 1559 1561 1561 1562 1563 1563 1564 1564 1565 1566 1566 1566 1567 1568 1569 1569 1570 1570 1570 1570 1570 1570 1570 1569 1569 1569 1569 1569 1569 1569 1570
1461 1462 1464 1467 1470 1472 1475 1478 1480 1483 1486 1490 1493 1496 1499 1502 1504 1505 1506 1510 1513 1515 1516 1518 1520 1522 1524 1526 1528 1529 1531 1533 1534 1536 1538 1539 1540 1541 1543 1544 1544 1545 1546 1547 1548 1549 1550 1550 1551 1552 1552 1553 1554 1555 1556 1557 1558 1559 1560 1561 1561 1562 1562 1563 1563 1564 1564 1565 1566 1567 1567 1567 1567 1567 1567 1568 1568 1567 1566 1566 1566 1566 1566 1567 1568
1457 1459 1461 1463 1466 1468 1470 1473 1476 1479 1482 1485 1489 1492 1495 1498 1500 1501 1503 1505 1508 1511 1513 1514 1515 1518 1520 1522 1524 1526 1527 1529 1530 1532 1534 1535 1536 1538 1539 1540 1541 1542 1543 1544 1545 1545 1546 1547 1548 1548 1548 1549 1550 1551 1553 1554 1555 1556 1557 1558 1559 1559 1560 1560 1561 1561 1562 1562 1563 1564 1564 1564 1564 1564 1564 1565 1565 1564 1564 1563 1563 1563 1564 1564 1564
1454 1455 1457 1459 1461 1463 1466 1469 1473 1476 1479 1481 1485 1488 1491 1494 1496 1499 1500 1501 1504 1507 1510 1511 1511 1513 1515 1517 1520 1521 1523 1524 1525 1527 1529 1531 1532 1533 1535 1536 1537 1538 1539 1540 1541 1542 1542 1543 1544 1544 1545 1545 1547 1548 1549 1550 1551 1552 1553 1554 1555 1556 1557 1557 1558 1558 1559 1560 1560 1561 1561 1562 1562 1562 1562 1562 1562 1561 1561 1561 1561 1561 1561 1561 1562
1451 1453 1454 1455 1457 1459 1463 1466 1470 1473 1476 1478 1481 1484 1487 1490 1493 1495 1497 1498 1500 1503 1506 1508 1508 1508 1510 1513 1515 1517 1518 1519 1520 1522 1524 1526 1528 1529 1531 1532 1533 1534 1535 1536 1537 1538 1539 1539 1540 1540 1541 1542 1543 1545 1546 1547 1548 1549 1550 1551 1552 1553 1554 1555 1555 1556 1556 1557 1557 1558 1559 1559 1559 1559 1559 1559 1558 1558 1558 1559 1558 1559 1559 1560 1559
1447 1450 1450 1451 1453 1456 1459 1463 1466 1469 1472 1474 1477 1480 1483 1486 1489 1491 1493 1494 1496 1498 1501 1504 1505 1505 1506 1508 1510 1512 1512 1513 1515 1517 1519 1521 1524 1525 1527 1528 1529 1531 1531 1532 1533 1534 1535 1536 1536 1537 1538 1539 1540 1541 1543 1544 1544 1545 1546 1547 1548 1549 1550 1551 1552 1552 1553 1554 1554 1555 1556 1556 1556 1556 1556 1556 1556 1557 1557 1557 1556 1557 1557 1557 1557
1444 1446 1447 1449 1451 1453 1455 1458 1461 1464 1467 1470 1473 1476 1479 1482 1484 1487 1489 1491 1493 1494 1497 1499 1501 1502 1502 1503 1505 1507 1507 1508 1510 1512 1515 1517 1520 1521 1523 1524 1525 1527 1527 1528 1529 1530 1531 1532 1533 1534 1534 1534 1535 1537 1539 1540 1541 1542 1543 1544 1544 1545 1546 1547 1548 1549 1550 1550 1551 1552 1553 1553 1554 1554 1555 1555 1555 1555 1555 1555 1555 1554 1554 1554 1554
1439 1441 1444 1447 1448 1449 1451 1454 1457 1460 1463 1465 1468 1471 1475 1478 1480 1482 1484 1486 1488 1490 1492 1494 1497 1499 1499 1499 1500 1501 1502 1503 1505 1507 1510 1513 1516 1517 1519 1520 1521 1522 1523 1523 1524 1525 1526 1527 1528 1529 1529 1530 1531 1533 1535 1536 1537 1538 1540 1541 1541 1542 1543 1544 1545 1545 1546 1547 1547 1548 1549 1550 1550 1551 1552 1553 1553 1553 1553 1553 1553 1552 1551 1551 1552
1436 1437 1440 1443 1443 1444 1447 1450 1453 1456 1458 1461 1464 1467 1470 1473 1475 1477 1479 1482 1484 1486 1487 1489 1491 1494 1495 1495 1495 1496 1497 1498 1500 1503 1505 1507 1510 1513 1514 1515 1515 1516 1517 1518 1519 1520 1521 1522 1523 1524 1525 1525 1527 1528 1530 1532 1534 1535 1536 1537 1537 1538 1539 1540 1541 1542 1542 1543 1544 1544 1546 1546 1547 1548 1549 1550 1550 1550 1550 1550 1550 1549 1549 1549 1549
1432 1434 1436 1438 1439 1440 1443 1445 1448 1451 1454 1457 1460 1462 1465 1467 1470 1472 1475 1477 1479 1480 1482 1484 1486 1488 1489 1490 1491 1492 1493 1493 1494 1497 1500 1502 1504 1507 1509 1510 1510 1511 1511 1512 1513 1514 1515 1517 1518 1519 1520 1521 1522 1523 1525 1527 1529 1531 1532 1533 1533 1533 1534 1535 1536 1537 1538 1539 1540 1541 1542 1543 1544 1545 1546 1546 1546 1546 1546 1547 1547 1547 1547 1547 1547
1428 1430 1431 1434 1435 1436 1438 1441 1444 1447 1450 1453 1455 1457 1459 1462 1464 1468 1470 1472 1474 1475 1477 1479 1480 1482 1484 1485 1486 1487 1487 1489 1489 1491 1494 1497 1499 1502 1504 1505 1505 1505 1505 1506 1507 1509 1510 1511 1512 1513 1515 1515 1516 1518 1520 1522 1524 1526 1527 1528 1528 1529 1529 1530 1531 1532 1534 1535 1535 1537 1539 1540 1541 1542 1542 1543 1542 1542 1543 1544 1544 1544 1544 1544 1544
1424 1425 1426 1428 1430 1432 1434 1437 1440 1443 1446 1448 1450 1452 1454 1457 1459 1463 1466 1468 1470 1471 1472 1473 1475 1477 1478 1480 1481 1481 1482 1484 1485 1486 1488 1492 1495 1498 1499 1500 1500 1500 1500 1501 1502 1503 1504 1505 1506 1507 1509 1510 1510 1512 1515 1518 1519 1520 1522 1523 1524 1524 1524 1525 1526 1527 1529 1530 1532 1533 1534 1536 1537 1537 1538 1539 1538 1539 1540 1541 1541 1541 1542 1542 1542
1419 1420 1421 1423 1426 1428 1431 1434 1437 1439 1441 1443 1445 1448 1450 1453 1456 1459 1462 1464 1465 1466 1467 1469 1470 1472 1473 1474 1475 1475 1477 1479 1480 1481 1483 1486 1490 1492 1493 1494 1495 1495 1496 1496 1497 1497 1498 1499 1500 1501 1502 1504 1504 1505 1509 1513 1514 1515 1516 1518 1518 1519 1519 1520 1521 1522 1525 1526 1527 1529 1530 1531 1532 1533 1534 1534 1535 1536 1537 1537 1538 1539 1539 1539 1539
1414 1416 1417 1419 1422 1425 1428 1431 1433 1435 1437 1438 1441 1444 1447 1449 1452 1454 1456 1458 1460 1462 1463 1465 1466 1467 1468 1468 1469 1470 1472 1474 1475 1476 1478 1480 1482 1485 1487 1488 1489 1489 1491 1492 1492 1492 1492 1493 1495 1495 1496 1497 1498 1499 1502 1506 1508 1508 1510 1511 1512 1513 1514 1515 1515 1517 1520 1521 1522 1524 1525 1526 1528 1529 1530 1530 1531 1532 1533 1533 1535 1537 1536 1536 1537
1410 1413 1415 1417 1420 1422 1425 1428 1430 1431 1433 1434 1437 1440 1443 1445 1448 1450 1451 1454 1456 1459 1460 1461 1462 1462 1463 1464 1465 1466 1468 1469 1470 1471 1472 1474 1476 1478 1480 1481 1482 1483 1484 1486 1486 1486 1486 1487 1488 1489 1490 1492 1493 1494 1496 1499 1501 1502 1503 1505 1505 1506 1508 1510 1510 1510 1513 1516 1517 1519 1521 1522 1524 1525 1525 1527 1528 1529 1529 1530 1532 1533 1533 1534 1535
1409 1412 1414 1416 1417 1419 1421 1424 1426 1428 1430 1432 1435 1438 1440 1442 1444 1446 1448 1450 1453 1455 1456 1458 1459 1460 1460 1461 1462 1462 1463 1464 1465 1465 1466 1468 1469 1471 1473 1474 1475 1476 1478 1479 1480 1480 1481 1482 1482 1482 1484 1487 1488 1488 1489 1491 1495 1497 1498 1498 1498 1500 1503 1506 1505 1506 1509 1511 1514 1516 1517 1518 1519 1520 1521 1522 1523 1525 1525 1526 1528 1529 1530 1531 1532
1407 1409 1411 1413 1415 1416 1418 1420 1422 1425 1428 1430 1432 1435 1436 1439 1441 1442 1445 1447 1449 1450 1452 1453 1455 1456 1457 1457 1458 1458 1458 1459 1459 1459 1460 1461 1463 1465 1467 1467 1469 1471 1472 1473 1474 1474 1475 1476 1476 1476 1479 1481 1482 1483 1484 1485 1489 1492 1492 1492 1494 1497 1500 1501 1501 1503 1505 1507 1509 1511 1512 1513 1514 1515 1516 1517 1518 1520 1521 1522 1524 1525 1527 1529 1530
1405 1407 1408 1411 1412 1414 1415 1417 1419 1422 1425 1426 1429 1431 1433 1436 1438 1439 1442 1444 1445 1446 1448 1449 1451 1452 1453 1453 1454 1454 1455 1456 1456 1455 1456 1457 1458 1460 1462 1463 1466 1468 1468 1467 1468 1468 1469 1470 1471 1471 1473 1475 1477 1479 1480 1481 1485 1487 1488 1489 1491 1493 1495 1496 1497 1499 1500 1502 1505 1506 1507 1509 1510 1511 1512 1513 1514 1516 1517 1519 1521 1522 1524 1526 1527
1402 1404 1406 1408 1410 1412 1413 1414 1417 1419 1421 1423 1425 1428 1430 1432 1435 1436 1438 1440 1442 1443 1444 1446 1447 1448 1449 1449 1450 1450 1452 1453 1453 1452 1453 1454 1455 1457 1459 1460 1462 1463 1463 1462 1462 1463 1465 1466 1467 1467 1468 1470 1472 1475 1477 1477 1479 1481 1484 1485 1486 1488 1490 1491 1492 1494 1495 1498 1500 1502 1503 1506 1508 1508 1509 1510 1511 1513 1514 1517 1518 1519 1521 1522 1522
1401 1402 1404 1405 1408 1410 1411 1412 1414 1416 1418 1420 1422 1425 1427 1429 1431 1433 1434 1436 1438 1440 1441 1442 1444 1444 1445 1445 1446 1448 1449 1450 1450 1450 1450 1451 1452 1453 1455 1456 1457 1458 1459 1458 1458 1460 1462 1463 1464 1463 1464 1465 1467 1470 1473 1473 1474 1476 1479 1480 1480 1482 1485 1486 1487 1489 1490 1493 1495 1497 1499 1502 1504 1504 1505 1507 1509 1511 1513 1516 1517 1517 1518 1518 1517
1399 1401 1403 1404 1406 1408 1409 1410 1412 1414 1416 1418 1419 1422 1424 1426 1428 1430 1431 1433 1435 1437 1439 1440 1440 1441 1442 1442 1443 1445 1446 1447 1448 1447 1447 1447 1448 1449 1450 1451 1452 1453 1454 1453 1453 1456 1458 1460 1461 1461 1460 1461 1462 1464 1466 1468 1469 1472 1474 1475 1475 1476 1477 1479 1481 1483 1485 1487 1490 1492 1495 1498 1500 1501 1502 1504 1506 1507 1511 1515 1516 1514 1514 1514 1514
1397 1399 1401 1402 1404 1406 1407 1409 1410 1411 1414 1416 1417 1419 1422 1424 1425 1427 1429 1431 1433 1434 1436 1437 1437 1438 1439 1440 1441 1442 1443 1444 1445 1445 1444 1444 1444 1445 1446 1447 1448 1449 1449 1449 1450 1452 1454 1456 1458 1457 1456 1457 1459 1461 1462 1464 1466 1468 1469 1470 1470 1470 1470 1470 1473 1476 1479 1482 1486 1489 1492 1495 1498 1500 1502 1503 1503 1505 1509 1513 1513 1511 1510 1511 1512
1395 1397 1399 1401 1403 1404 1406 1407 1408 1409 1411 1414 1416 1417 1419 1421 1423 1424 1426 1428 1430 1431 1433 1434 1434 1435 1436 1437 1438 1439 1440 1441 1442 1442 1441 1440 1441 1441 1442 1442 1443 1444 1445 1445 1446 1448 1449 1450 1451 1451 1452 1453 1454 1455 1455 1455 1456 1458 1460 1462 1463 1462 1462 1462 1463 1468 1472 1477 1481 1485 1488 1492 1495 1497 1499 1500 1501 1503 1507 1510 1510 1508 1508 1508 1509
1395 1396 1398 1400 1401 1403 1404 1406 1407 1408 1410 1412 1415 1416 1417 1419 1421 1422 1423 1425 1427 1429 1430 1431 1432 1434 1435 1435 1436 1437 1438 1439 1440 1439 1438 1436 1437 1437 1437 1438 1439 1439 1439 1441 1442 1444 1445 1444 1444 1446 1447 1448 1447 1446 1443 1442 1441 1442 1444 1448 1451 1454 1455 1455 1457 1461 1465 1470 1475 1479 1483 1488 1491 1493 1495 1496 1498 1500 1504 1508 1509 1508 1506 1506 1507
1395 1397 1398 1400 1401 1402 1403 1405 1406 1408 1410 1411 1413 1414 1415 1417 1419 1420 1421 1422 1424 1425 1427 1428 1430 1431 1432 1433 1433 1433 1435 1435 1435 1435 1434 1434 1434 1433 1433 1433 1434 1434 1435 1437 1438 1439 1438 1437 1437 1438 1440 1441 1440 1439 1437 1435 1435 1435 1435 1437 1441 1444 1445 1446 1447 1450 1455 1460 1464 1470 1475 1480 1484 1487 1490 1492 1493 1496 1499 1504 1508 1508 1506 1505 1505
1395 1396 1397 1398 1400 1401 1403 1405 1406 1407 1409 1411 1411 1412 1413 1415 1417 1418 1418 1419 1421 1423 1424 1425 1426 1427 1428 1429 1429 1430 1431 1431 1431 1431 1431 1431 1431 1430 1429 1429 1429 1429 1431 1432 1433 1432 1430 1428 1428 1430 1431 1430 1428 1426 1425 1425 1426 1427 1428 1431 1434 1436 1438 1438 1438 1441 1445 1450 1456 1461 1466 1471 1476 1480 1483 1486 1488 1490 1493 1497 1503 1506 1505 1503 1503
1392 1393 1394 1396 1397 1399 1402 1404 1405 1407 1409 1410 1410 1411 1413 1414 1415 1416 1417 1418 1419 1421 1422 1423 1424 1424 1425 1426 1427 1427 1428 1428 1428 1428 1427 1427 1427 1427 1426 1425 1424 1424 1425 1425 1425 1423 1422 1421 1419 1418 1419 1418 1415 1413 1413 1412 1412 1414 1417 1421 1425 1429 1432 1434 1435 1437 1439 1444 1450 1455 1458 1463 1469 1474 1477 1480 1483 1485 1488 1491 1497 1501 1501 1500 1500
1391 1391 1393 1395 1396 1397 1399 1401 1403 1406 1408 1409 1409 1410 1412 1413 1414 1415 1415 1416 1417 1419 1420 1421 1422 1422 1423 1423 1424 1425 1425 1424 1424 1424 1423 1423 1422 1421 1421 1420 1419 1419 1419 1418 1415 1413 1413 1413 1410 1407 1407 1406 1404 1405 1404 1403 1403 1405 1408 1412 1416 1420 1424 1427 1431 1436 1438 1441 1445 1448 1451 1456 1463 1469 1474 1478 1481 1483 1484 1487 1492 1496 1497 1496 1497
1390 1391 1393 1394 1396 1397 1399 1400 1402 1404 1406 1408 1409 1410 1411 1413 1413 1414 1414 1415 1416 1417 1418 1419 1420 1420 1421 1421 1422 1422 1422 1422 1422 1421 1420 1419 1418 1416 1415 1414 1413 1412 1411 1409 1406 1403 1403 1403 1400 1397 1395 1394 1393 1396 1398 1397 1397 1399 1400 1402 1406 1410 1414 1419 1424 1430 1434 1437 1439 1441 1445 1451 1458 1464 1470 1475 1480 1483 1484 1485 1489 1493 1493 1493 1495
1390 1391 1393 1395 1397 1398 1400 1401 1403 1404 1406 1407 1408 1409 1411 1412 1413 1414 1414 1415 1415 1416 1417 1418 1419 1419 1420 1420 1421 1421 1420 1420 1419 1418 1417 1416 1414 1412 1411 1409 1408 1406 1403 1400 1398 1395 1394 1393 1391 1388 1386 1384 1385 1387 1388 1388 1390 1392 1394 1397 1402 1405 1408 1412 1416 1421 1427 1433 1436 1436 1439 1446 1453 1459 1466 1472 1477 1481 1482 1484 1487 1489 1489 1490 1492
1392 1393 1394 1396 1398 1399 1400 1402 1404 1405 1406 1407 1408 1410 1412 1412 1413 1414 1415 1415 1416 1416 1417 1418 1419 1419 1420 1420 1420 1419 1419 1418 1417 1416 1415 1413 1411 1409 1407 1404 1402 1400 1396 1394 1391 1388 1387 1386 1385 1383 1381 1378 1376 1376 1375 1375 1376 1380 1385 1391 1398 1401 1403 1407 1411 1416 1422 1430 1434 1434 1437 1442 1449 1455 1462 1469 1474 1477 1479 1482 1485 1486 1487 1488 1489
1394 1395 1396 1397 1398 1399 1400 1402 1403 1404 1405 1407 1408 1410 1411 1412 1413 1414 1415 1416 1417 1417 1418 1419 1419 1420 1420 1419 1419 1418 1418 1417 1416 1414 1413 1411 1409 1406 1403 1400 1397 1394 1390 1387 1384 1382 1380 1379 1378 1378 1377 1374 1371 1369 1367 1364 1363 1367 1373 1381 1388 1393 1396 1400 1406 1412 1419 1428 1433 1435 1436 1441 1447 1453 1460 1467 1471 1474 1477 1480 1482 1483 1484 1485 1487
1396 1397 1397 1398 1398 1399 1399 1400 1402 1403 1405 1406 1408 1409 1410 1411 1412 1413 1414 1416 1417 1417 1418 1419 1419 1420 1420 1419 1418 1418 1417 1416 1415 1413 1411 1409 1406 1403 1400 1396 1393 1389 1386 1383 1381 1378 1376 1373 1371 1369 1369 1369 1368 1367 1364 1361 1359 1360 1364 1372 1381 1387 1391 1396 1403 1410 1417 1425 1433 1435 1436 1440 1447 1453 1460 1465 1469 1472 1475 1477 1479 1480 1481 1483 1484
1395 1396 1397 1398 1399 1399 1400 1401 1403 1404 1406 1407 1408 1408 1409 1409 1411 1412 1414 1415 1416 1417 1418 1419 1419 1419 1419 1418 1418 1417 1416 1415 1414 1412 1410 1408 1405 1403 1400 1397 1393 1389 1386 1383 1380 1377 1373 1370 1367 1364 1363 1364 1365 1365 1363 1361 1359 1358 1360 1367 1377 1384 1388 1394 1402 1410 1417 1424 1431 1435 1437 1442 1448 1454 1458 1463 1466 1469 1472 1474 1475 1477 1479 1480 1481
1396 1397 1398 1400 1402 1403 1404 1404 1405 1406 1406 1406 1407 1408 1409 1410 1412 1413 1414 1415 1416 1417 1417 1417 1418 1418 1418 1418 1418 1417 1417 1416 1415 1412 1410 1408 1406 1404 1401 1398 1395 1392 1388 1385 1382 1379 1374 1369 1365 1362 1361 1362 1362 1363 1362 1360 1360 1361 1364 1367 1373 1379 1385 1392 1400 1410 1418 1426 1432 1436 1439 1443 1448 1452 1456 1461 1464 1467 1469 1471 1472 1474 1476 1477 1479
1400 1400 1400 1402 1404 1406 1407 1407 1407 1406 1406 1407 1407 1409 1410 1412 1413 1414 1414 1414 1415 1415 1415 1415 1416 1417 1417 1418 1417 1417 1417 1417 1416 1413 1411 1409 1407 1405 1402 1399 1397 1394 1391 1389 1387 1383 1377 1372 1366 1363 1363 1364 1365 1367 1368 1365 1362 1364 1367 1368 1370 1375 1382 1391 1400 1410 1420 1428 1434 1438 1442 1445 1447 1451 1455 1459 1462 1465 1467 1468 1470 1472 1474 1476 1476
1402 1402 1401 1402 1404 1406 1407 1407 1407 1406 1407 1408 1409 1410 1411 1413 1414 1415 1415 1415 1415 1415 1414 1414 1415 1416 1417 1417 1417 1417 1417 1417 1416 1414 1412 1410 1408 1406 1404 1402 1400 1397 1395 1394 1392 1388 1384 1381 1376 1371 1369 1369 1370 1375 1379 1378 1376 1377 1380 1383 1385 1387 1389 1395 1404 1413 1422 1429 1436 1440 1444 1445 1447 1451 1454 1457 1460 1463 1464 1466 1468 1470 1472 1473 1474
1403 1402 1402 1402 1404 1406 1408 1409 1409 1408 1408 1409 1410 1411 1412 1413 1414 1414 1415 1415 1415 1416 1415 1415 1415 1415 1416 1417 1417 1417 1417 1416 1415 1414 1412 1411 1409 1408 1407 1405 1403 1401 1399 1398 1396 1393 1391 1390 1388 1384 1379 1375 1375 1379 1386 1391 1392 1394 1397 1401 1405 1404 1402 1403 1409 1417 1424 1431 1436 1440 1443 1446 1448 1451 1454 1456 1458 1460 1462 1464 1466 1468 1470 1471 1472
1404 1403 1403 1404 1406 1407 1409 1410 1411 1411 1410 1410 1410 1411 1413 1414 1414 1415 1415 1416 1416 1417 1417 1417 1417 1417 1417 1417 1417 1417 1417 1416 1415 1414 1413 1412 1411 1409 1408 1407 1406 1404 1403 1401 1399 1398 1396 1395 1393 1392 1389 1385 1382 1383 1388 1394 1398 1401 1404 1408 1411 1412 1410 1411 1415 1420 1426 1431 1436 1439 1443 1445 1448 1450 1453 1454 1457 1459 1461 1463 1465 1466 1467 1469 1470
1405 1405 1405 1406 1408 1409 1410 1411 1411 1411 1411 1411 1411 1412 1413 1414 1415 1415 1416 1417 1417 1418 1418 1419 1419 1418 1418 1417 1417 1417 1417 1416 1415 1414 1413 1412 1411 1411 1410 1409 1407 1407 1406 1405 1403 1401 1400 1399 1398 1396 1395 1393 1391 1390 1391 1395 1398 1402 1406 1410 1412 1413 1414 1415 1418 1422 1427 1431 1435 1438 1442 1444 1447 1449 1451 1453 1455 1458 1460 1461 1463 1464 1465 1466 1467
1406 1406 1407 1408 1409 1410 1411 1411 1411 1411 1411 1412 1413 1413 1414 1415 1415 1416 1418 1418 1419 1419 1420 1420 1420 1420 1419 1419 1418 1417 1416 1416 1415 1415 1414 1413 1412 1412 1411 1410 1409 1408 1407 1407 1406 1405 1403 1403 1402 1401 1400 1400 1400 1399 1399 1400 1402 1405 1408 1411 1413 1414 1415 1417 1420 1423 1427 1431 1434 1438 1441 1443 1446 1448 1450 1452 1454 1456 1458 1459 1461 1462 1463 1464 1465
1406 1407 1408 1409 1410 1411 1411 1411 1412 1412 1412 1413 1414 1414 1415 1416 1417 1418 1419 1419 1420 1420 1421 1421 1420 1420 1420 1419 1418 1417 1416 1415 1415 1415 1414 1413 1412 1411 1411 1411 1411 1410 1409 1408 1408 1408 1407 1406 1406 1406 1405 1405 1405 1405 1405 1406 1407 1409 1411 1414 1415 1416 1417 1419 1422 1425 1428 1432 1435 1438 1441 1443 1445 1447 1449 1451 1453 1454 1456 1458 1459 1460 1461 1462 1463
1405 1406 1407 1409 1410 1411 1411 1411 1412 1413 1413 1414 1415 1416 1417 1418 1418 1419 1419 1420 1420 1421 1421 1421 1421 1420 1420 1419 1419 1418 1417 1416 1415 1414 1414 1413 1412 1412 1412 1412 1411 1411 1410 1409 1409 1409 1409 1409 1409 1409 1409 1409 1409 1409 1410 1410 1412 1413 1415 1416 1418 1419 1420 1422 1424 1427 1430 1433 1435 1438 1441 1443 1445 1446 1448 1450 1451 1452 1454 1455 1457 1458 1459 1459 1461
1406 1406 1407 1408 1409 1410 1411 1411 1412 1413 1413 1414 1415 1416 1416 1417 1419 1420 1420 1420 1420 1421 1421 1421 1421 1420 1420 1420 1419 1418 1418 1416 1416 1415 1415 1414 1414 1413 1413 1413 1413 1412 1411 1411 1410 1410 1410 1411 1411 1411 1412 1412 1412 1412 1413 1414 1415 1416 1417 1419 1420 1421 1422 1424 1426 1429 1431 1434 1436 1438 1440 1442 1444 1446 1447 1448 1449 1451 1452 1453 1454 1456 1457 1457 1458
1407 1407 1407 1408 1409 1409 1410 1411 1412 1413 1414 1415 1415 1416 1416 1416 1417 1418 1419 1420 1420 1421 1421 1422 1421 1420 1420 1420 1420 1420 1419 1418 1417 1416 1416 1415 1415 1415 1414 1414 1414 1414 1413 1412 1411 1411 1412 1412 1413 1413 1414 1414 1415 1415 1416 1416 1417 1418 1419 1420 1421 1422 1424 1426 1428 1431 1433 1435 1437 1439 1441 1442 1444 1445 1446 1447 1448 1449 1450 1452 1453 1454 1455 1456 1456
1408 1408 1408 1409 1410 1410 1411 1413 1413 1414 1415 1415 1415 1416 1416 1416 1416 1417 1417 1418 1418 1419 1420 1420 1420 1419 1419 1419 1419 1419 1419 1419 1418 1418 1417 1416 1415 1415 1415 1415 1415 1415 1415 1414 1413 1413 1413 1413 1414 1415 1416 1416 1417 1417 1418 1419 1420 1420 1421 1422 1423 1425 1427 1428 1430 1432 1434 1435 1437 1438 1440 1441 1443 1444 1445 1446 1447 1448 1449 1450 1451 1452 1453 1454 1454
1410 1410 1410 1411 1412 1413 1414 1415 1416 1416 1416 1416 1416 1416 1416 1416 1417 1417 1417 1417 1418 1418 1418 1419 1419 1419 1419 1419 1419 1418 1418 1418 1418 1418 1418 1417 1417 1416 1416 1416 1416 1416 1415 1415 1415 1415 1415 1415 1416 1417 1417 1418 1419 1419 1420 1421 1421 1421 1422 1424 1425 1427 1428 1430 1431 1433 1434 1435 1436 1438 1439 1440 1442 1443 1444 1445 1446 1446 1447 1448 1449 1450 1451 1451 1452